TimeEST,TemperatureF,Dew PointF,Humidity,Sea Level PressureIn,VisibilityMPH,Wind Direction,Wind SpeedMPH,Gust SpeedMPH,PrecipitationIn,Events,Conditions,WindDirDegrees,DateUTC
12:53 AM,55.0,50.0,83,30.19,10.0,WNW,3.5,-,N/A,,Partly Cloudy,300,2011-11-12 05:53:00
1:53 AM,55.0,51.1,86,30.19,10.0,WNW,3.5,-,N/A,,Scattered Clouds,300,2011-11-12 06:53:00
2:53 AM,53.1,50.0,89,30.18,10.0,WNW,3.5,-,N/A,,Clear,300,2011-11-12 07:53:00
3:53 AM,53.1,50.0,89,30.19,10.0,Calm,Calm,-,N/A,,Clear,0,2011-11-12 08:53:00
4:53 AM,54.0,51.1,90,30.21,10.0,Calm,Calm,-,N/A,,Mostly Cloudy,0,2011-11-12 09:53:00
5:53 AM,53.1,50.0,89,30.21,10.0,Calm,Calm,-,N/A,,Partly Cloudy,0,2011-11-12 10:53:00
6:53 AM,52.0,50.0,93,30.22,10.0,Calm,Calm,-,N/A,,Clear,0,2011-11-12 11:53:00
7:53 AM,60.8,55.4,82,30.25,10.0,Calm,Calm,-,N/A,,Partly Cloudy,0,2011-11-12 12:53:00
8:53 AM,70.0,54.0,57,30.25,10.0,NE,9.2,-,N/A,,Partly Cloudy,50,2011-11-12 13:53:00
9:53 AM,71.6,51.8,50,30.27,10.0,ENE,10.4,20.7,N/A,,Clear,60,2011-11-12 14:53:00
10:53 AM,73.9,52.0,46,30.27,10.0,East,12.7,-,N/A,,Partly Cloudy,80,2011-11-12 15:53:00
11:53 AM,75.0,53.1,46,30.26,10.0,ENE,13.8,18.4,N/A,,Clear,70,2011-11-12 16:53:00
12:53 PM,75.0,53.1,46,30.24,10.0,East,11.5,-,N/A,,Partly Cloudy,90,2011-11-12 17:53:00
1:53 PM,73.0,55.0,53,30.22,10.0,ENE,11.5,-,N/A,,Scattered Clouds,60,2011-11-12 18:53:00
2:53 PM,75.0,54.0,48,30.22,10.0,East,15.0,-,N/A,,Clear,90,2011-11-12 19:53:00
3:53 PM,71.1,54.0,55,30.22,10.0,East,10.4,-,N/A,,Partly Cloudy,80,2011-11-12 20:53:00
4:53 PM,72.0,53.1,51,30.23,10.0,East,11.5,18.4,N/A,,Scattered Clouds,80,2011-11-12 21:53:00
5:53 PM,70.0,55.0,59,30.23,10.0,NE,8.1,-,N/A,,Mostly Cloudy,50,2011-11-12 22:53:00
6:53 PM,70.0,55.0,59,30.24,10.0,East,5.8,-,N/A,,Mostly Cloudy,80,2011-11-12 23:53:00
7:53 PM,68.0,53.1,59,30.25,10.0,ENE,4.6,-,N/A,,Partly Cloudy,70,2011-11-13 00:53:00
8:53 PM,69.1,54.0,58,30.26,10.0,ENE,6.9,-,N/A,,Clear,70,2011-11-13 01:53:00
9:53 PM,68.0,53.1,59,30.27,10.0,East,6.9,-,N/A,,Clear,80,2011-11-13 02:53:00
10:53 PM,69.1,55.0,61,30.25,10.0,East,8.1,-,N/A,,Mostly Cloudy,90,2011-11-13 03:53:00
11:53 PM,68.0,54.0,61,30.23,10.0,East,6.9,-,N/A,,Clear,80,2011-11-13 04:53:00